Track STARLINK-2351 now! 10-day predictions STARLINK-2351 is classified as:
1 47891U 21021AH 21109.91667824 .00045229 00000-0 32464-3 0 9995 2 47891 53.0511 36.4664 0001337 86.4279 350.2935 15.73217626 1777